"Time","Temp","Dewpoint","Humidity","Pressure","Direction","Speed","Gust","Precip","PrecipRate"
"00:04:58","60.9","54.2","78.8","30.16","333","0.8","6","0.00","0.00"
"00:09:58","60.6","54.4","80.3","30.16","346","1.4","3.6","0.01","0.01"
"00:14:59","60.2","54.4","81.4","30.16","333","1.3","4.8","0.01","0.01"
"00:19:59","59.9","54.4","82.2","30.14","328","1.1","3.6","0.01","0.01"
"00:24:56","59.6","54.4","83","30.14","327","1.1","3.6","0.02","0.02"
"00:29:56","59.3","54.4","83.5","30.14","327","0.8","3.6","0.02","0.02"
"00:34:57","59.1","54.4","84.2","30.14","317","1","4.8","0.02","0.02"
"00:39:58","59","54.5","85","30.14","313","0.8","4.8","0.03","0.02"
"00:44:59","58.8","54.5","85.6","30.14","313","0.5","2.4","0.03","0.03"
"00:49:59","58.7","54.5","86.1","30.14","318","1","4.8","0.04","0.03"
"00:54:59","58.5","54.6","87","30.14","342","1.7","4.8","0.04","0.04"
"00:59:59","58.3","54.6","87.4","30.14","348","1.5","4.8","0.04","0.04"
"01:04:56","58.2","54.7","88","30.14","348","1.7","6","0.04","0.04"
"01:09:58","58.1","54.6","88","30.14","343","2.2","8.4","0.04","0.04"
"01:14:59","58","54.6","88.3","30.14","343","2.1","8.1","0.05","0.04"
"01:19:59","58","54.7","88.7","30.13","356","2.1","4.8","0.05","0.04"
"01:24:56","58","54.7","88.9","30.13","357","2.4","6","0.05","0.04"
"01:29:57","57.9","54.7","89","30.13","336","2","4.8","0.05","0.03"
"01:34:59","57.8","54.6","89","30.12","353","2.7","8.4","0.05","0.03"
"01:39:57","57.8","54.5","88.5","30.12","337","2.8","12","0.05","0.03"
"01:44:58","57.8","54.4","88.3","30.12","344","2.7","7.2","0.06","0.03"
"01:49:59","57.8","54.3","88","30.12","340","2.4","7.2","0.06","0.03"
"01:54:56","57.8","54.3","88","30.12","339","2.5","8.4","0.06","0.02"
"01:59:56","57.8","54.3","88","30.12","350","2","15","0.06","0.02"
"02:04:57","57.7","54.2","88","30.12","350","2.7","12","0.06","0.02"
"02:09:59","57.7","54.2","88","30.12","341","3.2","10.8","0.07","0.02"
"02:14:57","57.6","54.1","88.2","30.12","0","3.2","10.8","0.07","0.03"
"02:19:58","57.5","54.2","88.8","30.11","351","1.9","6.9","0.07","0.02"
"02:24:56","57.4","54.2","89","30.11","326","1.4","4.8","0.08","0.03"
"02:29:56","57.4","54.2","89","30.11","342","2.4","8.4","0.08","0.03"
"02:34:58","57.3","54.1","89","30.11","352","2.3","6","0.09","0.04"
"02:39:59","57.2","54","89","30.11","353","3.5","13.2","0.09","0.04"
"02:44:56","57.1","54","89.2","30.11","349","3.1","12","0.10","0.04"
"02:49:58","57.1","54.1","89.7","30.10","335","2.9","11.5","0.10","0.04"
"02:54:59","57","54.1","90","30.10","357","3.4","13.2","0.10","0.04"
"02:59:56","57","54","89.7","30.10","345","3.4","10.8","0.10","0.04"
"03:04:58","56.9","54","89.8","30.10","354","2.8","12","0.10","0.04"
"03:09:57","56.9","54","90","30.10","343","3.4","16.1","0.11","0.05"
"03:14:59","56.9","54","90","30.10","337","2.9","7.2","0.11","0.04"
"03:19:56","56.8","53.9","90","30.10","344","3","13.2","0.11","0.04"
"03:24:56","56.7","53.8","90","30.10","351","3.7","10.8","0.11","0.04"
"03:29:56","56.7","53.8","90","30.10","355","4","8.4","0.11","0.03"
"03:34:57","56.7","53.8","90","30.08","352","3.9","15","0.11","0.03"
"03:39:56","56.7","53.8","90","30.08","355","3.5","15","0.11","0.02"
"03:44:57","56.7","53.8","90","30.08","345","3.8","12","0.11","0.02"
"03:49:59","56.7","53.8","90","30.07","345","2.8","13.2","0.11","0.01"
"03:54:57","56.7","53.8","90","30.07","341","4.2","17.3","0.11","0.01"
"03:59:58","56.7","53.8","90","30.07","341","3.2","13.2","0.11","0.01"
"04:04:58","56.7","53.8","90.2","30.05","332","4.8","19.6","0.11","0.01"
"04:09:56","56.7","53.8","90.2","30.05","350","4.1","17.3","0.11","0.01"
"04:14:58","56.7","53.9","90.3","30.05","323","2.7","8.4","0.11","0.00"
"04:19:57","56.7","54.1","91","30.05","359","3.5","12","0.11","0.00"
"04:24:58","56.7","54.1","91","30.05","334","3.8","15","0.11","0.00"
"04:29:59","56.7","54.1","91","30.05","339","3.4","8.4","0.11","0.00"
"04:34:58","56.7","54.1","91","30.04","345","3.9","15","0.12","0.01"
"04:39:59","56.7","54.1","91","30.04","338","2.4","8.1","0.12","0.01"
"04:44:57","56.7","54.1","91","30.04","345","2.8","12","0.12","0.01"
"04:49:59","56.6","54.1","91.1","30.04","0","3.5","11.5","0.13","0.02"
"04:54:56","56.6","54.1","91.3","30.04","355","2.9","8.4","0.14","0.03"
"04:59:57","56.6","54.3","92","30.05","345","2.9","7.2","0.14","0.03"
"05:04:58","56.6","54.3","92","30.05","330","3","12","0.14","0.03"
"05:09:57","56.6","54.3","92","30.05","354","3.4","11.5","0.15","0.04"
"05:14:56","56.5","54.2","92","30.05","356","4.4","13.2","0.16","0.05"
"05:19:57","56.5","54.2","92","30.05","337","2.6","10.8","0.17","0.06"
"05:24:58","56.5","54.4","92.8","30.05","346","2.4","15.6","0.18","0.07"
"05:29:59","56.5","54.5","93","30.05","353","4.4","16.1","0.19","0.08"
"05:34:56","56.5","54.5","93","30.04","355","4","13.2","0.19","0.08"
"05:39:58","56.5","54.5","93","30.04","346","3.8","12","0.20","0.08"
"05:44:56","56.5","54.5","93","30.04","340","3.1","10.8","0.21","0.09"
"05:49:57","56.5","54.5","93","30.04","339","3.7","12","0.22","0.10"
"05:54:58","56.6","54.6","93","30.04","348","3.1","13.2","0.22","0.09"
"05:59:59","56.6","54.6","93","30.04","347","3.5","10.4","0.22","0.08"
"06:04:56","56.6","54.6","93","30.04","330","2.9","8.4","0.24","0.10"
"06:09:59","56.6","54.6","93","30.04","337","3.7","8.4","0.24","0.10"
"06:14:59","56.5","54.5","93","30.04","344","4.5","12","0.25","0.10"
"06:19:56","56.4","54.4","93","30.03","355","4.6","17.3","0.25","0.09"
"06:24:57","56.4","54.4","93","30.03","327","4","13.2","0.26","0.08"
"06:29:58","56.3","54.3","93","30.03","262","2.6","10.8","0.27","0.08"
"06:34:56","56.3","54.3","93","30.02","324","2.5","7.2","0.28","0.09"
"06:39:59","56.2","54.2","93","30.02","348","2.9","13.2","0.30","0.09"
"06:44:57","56.2","54.2","93","30.03","346","3.8","11.5","0.31","0.10"
"06:49:58","56.1","54.1","93","30.03","225","3.3","10.8","0.32","0.10"
"06:54:56","56.1","54.1","93","30.03","338","3.3","10.8","0.33","0.11"
"06:59:57","56","54","93","30.03","4","3.2","12","0.34","0.12"
"07:04:58","56","54.2","93.6","30.02","342","3.7","16.8","0.36","0.13"
"07:09:56","55.9","54","93.3","30.02","344","4.5","17.3","0.37","0.13"
"07:14:59","55.9","53.9","93","30.02","347","4.8","15.6","0.38","0.13"
"07:19:57","55.9","53.9","93.2","30.01","343","3.7","12","0.39","0.14"
"07:24:59","55.8","53.8","93","30.01","341","3","8.4","0.40","0.14"
"07:29:56","55.8","54","93.5","30.01","351","4.6","18.4","0.41","0.14"
"07:34:59","55.9","53.9","93","30.01","345","3.5","10.8","0.41","0.14"
"07:39:57","55.9","54","93.4","30.01","353","3.1","10.8","0.42","0.13"
"07:44:59","55.9","54.2","94","30.01","357","3.2","10.8","0.42","0.12"
"07:49:56","55.9","54.2","94","30.01","344","3.9","10.8","0.42","0.11"
"07:54:58","56","54.3","94","30.01","338","3.7","15","0.42","0.10"
"07:59:56","56","54.3","94","30.01","340","2.8","10.8","0.42","0.09"
"08:04:56","56","54.3","94","30.01","348","3.9","18.4","0.42","0.08"
"08:09:59","56.1","54.2","93.4","30.01","349","4.9","14.4","0.42","0.06"
"08:14:57","56.1","54.2","93.2","30.01","345","3","11.5","0.43","0.05"
"08:19:58","56.1","54.4","94","30.01","328","3.4","12","0.43","0.05"
"08:24:59","56.2","54.5","94","30.01","300","2.5","8.4","0.43","0.04"
"08:29:57","56.2","54.5","94","30.01","345","3.1","10.8","0.44","0.04"
"08:34:58","56.3","54.6","94","30.01","340","2.9","9.6","0.47","0.05"
"08:39:56","56.3","54.6","94","30.01","338","3.9","10.8","0.49","0.07"
"08:44:58","56.3","54.6","94","30.01","344","3.6","16.1","0.52","0.10"
"08:49:59","56.2","54.5","94","30.00","348","4","15","0.55","0.12"
"08:54:56","56.3","54.6","94","30.00","338","3.6","10.8","0.58","0.16"
"08:59:57","56.3","54.6","94","30.00","353","3.5","15.6","0.61","0.18"
"09:04:58","56.4","54.8","94.5","29.99","356","4.6","16.8","0.63","0.20"
"09:09:56","56.4","54.8","94.5","29.99","320","2.7","17.3","0.64","0.22"
"09:14:59","56.4","55","95","29.99","347","4.2","12","0.65","0.23"
"09:19:56","56.5","55.1","95","29.99","346","4.7","15","0.66","0.23"
"09:24:57","56.6","55.1","94.8","29.99","2","4","16.8","0.66","0.23"
"09:29:58","56.7","55","94","29.99","353","5.1","17.3","0.66","0.23"
"09:34:56","56.8","55.1","94","29.99","342","4.4","12","0.66","0.22"
"09:39:58","56.9","55.3","94.5","29.99","341","4.4","17.3","0.67","0.19"
"09:44:58","56.9","55.3","94.2","29.99","343","4.6","15","0.67","0.18"
"09:49:59","56.9","55.2","94","29.99","349","4.4","15.6","0.67","0.15"
"09:54:56","56.9","55.2","94","29.99","349","6.8","19.6","0.67","0.12"
"09:59:57","57","55.3","94","29.99","335","4.6","12.7","0.67","0.09"
"10:04:57","57","55.3","94","29.99","352","4.2","15","0.67","0.06"
"10:09:59","56.9","55.2","94","29.99","348","3.7","15.6","0.68","0.04"
"10:14:58","56.9","55.2","94","29.99","332","4.3","13.2","0.68","0.04"
"10:19:58","56.8","55.1","94","29.99","336","5.2","17.3","0.68","0.03"
"10:24:59","56.8","55.1","94","29.99","351","3.8","18","0.68","0.02"
"10:29:59","56.8","55.1","94","29.99","350","3.6","18.4","0.68","0.02"
"10:34:57","56.9","55.2","94","29.98","344","4.5","17.3","0.68","0.02"
"10:39:58","56.9","55.2","94","29.98","1","4","13.2","0.68","0.02"
"10:44:59","56.9","55.2","94","29.98","1","3.6","13.2","0.69","0.01"
"10:49:56","56.8","55.1","94","29.98","354","5.8","14.4","0.69","0.02"
"10:54:57","56.9","55.2","94","29.98","349","3.8","12","0.69","0.02"
"10:59:58","57.1","55.4","94.3","29.98","333","3.7","13.2","0.69","0.02"
"11:04:59","57.2","55.7","94.4","29.97","350","3.9","12","0.69","0.02"
"11:09:57","57.3","55.6","94","29.97","351","4.2","20.4","0.69","0.02"
"11:14:59","57.4","55.7","94","29.97","350","5","20.7","0.70","0.02"
"11:19:56","57.3","55.6","94","29.96","353","4.1","15","0.70","0.02"
"11:24:57","57.3","55.6","94","29.96","350","3.6","12","0.70","0.02"
"11:29:57","57.4","55.7","94","29.96","354","3.7","14.4","0.70","0.02"
"11:34:58","57.5","55.8","94","29.95","343","5.4","15","0.70","0.02"
"11:39:56","57.5","55.8","94","29.95","341","3","14.4","0.70","0.02"
"11:44:57","57.5","55.8","94","29.95","348","4","15","0.70","0.02"
"11:49:58","57.5","55.8","94","29.95","345","4.2","14.4","0.70","0.01"
"11:54:56","57.4","55.7","94","29.95","351","4.2","15","0.70","0.01"
"11:59:57","57.4","55.7","94","29.95","335","2.8","12","0.70","0.01"
"12:04:58","57.4","55.7","94","29.95","343","3.2","17.3","0.70","0.01"
"12:09:56","57.4","55.7","94","29.95","340","2.7","15","0.70","0.01"
"12:14:59","57.5","55.9","94.3","29.95","346","3.1","19.6","0.70","0.01"
"12:19:56","57.5","55.9","94.2","29.95","342","4.1","13.2","0.70","0.00"
"12:24:57","57.6","56.2","95","29.95","347","4.2","13.2","0.70","0.00"
"12:29:58","57.7","56.3","95","29.95","337","3.2","10.8","0.71","0.01"
"12:34:56","57.7","56.3","94.8","29.94","339","4","13.2","0.72","0.02"
"12:39:58","57.7","56.3","94.8","29.94","355","3.7","15","0.72","0.02"
"12:44:56","57.8","56.2","94.4","29.94","354","4.3","15","0.72","0.02"
"12:49:57","57.9","56.3","94.3","29.94","347","5","15","0.72","0.02"
"12:54:58","58","56.3","94","29.94","345","4.3","12","0.72","0.02"
"12:59:56","58","56.3","94","29.94","349","3.5","11.5","0.72","0.02"
"13:04:58","58","56.4","94.3","29.93","356","2.7","13.2","0.72","0.02"
"13:09:57","58","56.6","95","29.93","332","3.4","12","0.72","0.02"
"13:14:56","58","56.5","94.7","29.93","337","3.1","8.4","0.72","0.02"
"13:19:57","58.1","56.7","95","29.93","339","2.5","17.3","0.73","0.03"
"13:24:58","58.2","56.8","95","29.93","6","4.2","16.1","0.74","0.04"
"13:29:56","58.2","56.8","95","29.93","342","3.1","8.4","0.75","0.04"
"13:34:57","58.2","56.8","95","29.92","337","2.8","8.4","0.75","0.04"
"13:39:56","58.3","56.9","95","29.92","346","2.5","6","0.76","0.04"
"13:44:57","58.4","57","95","29.92","347","3.5","13.2","0.76","0.04"
"13:49:58","58.4","57","95","29.92","346","4.1","12","0.77","0.05"
"13:54:56","58.5","57.1","95","29.92","347","4.6","12","0.77","0.05"
"13:59:57","58.6","57.2","95","29.92","0","4.5","13.2","0.77","0.05"
"14:04:58","58.6","57.2","95","29.91","327","2.9","12.7","0.77","0.05"
"14:09:56","58.6","57.2","95","29.91","340","3.1","8.4","0.77","0.05"
"14:14:59","58.6","57.2","95","29.91","341","4.2","13.2","0.77","0.05"
"14:19:56","58.6","57.2","95","29.90","335","3.3","12","0.78","0.05"
"14:24:57","58.6","57.1","94.9","29.90","353","3.2","10.8","0.78","0.05"
"14:29:59","58.6","57.2","95","29.90","356","2.7","10.4","0.80","0.06"
"14:34:56","58.6","57.2","95","29.89","10","2.6","15","0.81","0.06"
"14:39:59","58.6","57.2","95","29.89","351","4.3","15","0.82","0.06"
"14:44:57","58.7","57.3","95","29.89","346","3.4","9.2","0.83","0.07"
"14:49:58","58.7","57.3","95","29.89","338","2.3","6","0.84","0.08"
"14:54:56","58.8","57.4","95","29.89","352","3.9","13.2","0.85","0.08"
"14:59:57","58.9","57.5","95","29.89","345","4.5","15","0.86","0.09"
"15:04:58","58.9","57.5","95","29.88","350","3.5","15","0.86","0.09"
"15:09:56","58.9","57.5","95","29.88","348","3.5","12.7","0.86","0.09"
"15:14:59","59","57.6","95","29.88","334","3.7","14.4","0.88","0.10"
"15:19:56","59.1","57.7","95","29.87","0","3.1","9.6","0.88","0.11"
"15:24:58","59.2","57.8","95","29.87","336","2.7","8.4","0.89","0.11"
"15:29:59","59.2","57.8","95","29.87","343","3.7","10.8","0.90","0.11"
"15:34:57","59.2","57.8","95","29.87","356","3.5","10.4","0.90","0.10"
"15:39:56","59.3","57.9","95","29.87","349","3.6","12","0.90","0.09"
"15:44:58","59.3","57.9","95","29.87","11","3.6","11.5","0.91","0.08"
"15:49:59","59.3","57.9","95","29.87","347","2.5","10.4","0.91","0.08"
"15:54:56","59.4","58","95","29.87","350","3.4","9.6","0.91","0.07"
"15:59:56","59.5","58.1","95","29.87","331","3","12","0.92","0.06"
"16:04:56","59.5","58.1","95","29.86","335","2.1","11.5","0.92","0.06"
"16:09:58","59.6","58.2","95","29.86","342","2.9","12","0.92","0.06"
"16:14:57","59.6","58.2","95","29.86","340","3.7","13.2","0.92","0.06"
"16:19:58","59.6","58.2","95","29.86","330","3.5","12.7","0.92","0.04"
"16:24:56","59.6","58.2","95","29.86","337","3.3","13.2","0.92","0.04"
"16:29:57","59.7","58.3","95","29.86","335","2","12","0.92","0.03"
"16:34:59","59.7","58.3","95","29.86","1","3.5","17.3","0.93","0.02"
"16:39:58","59.7","58.3","95","29.86","352","2.3","6","0.93","0.03"
"16:44:56","59.7","58.3","95","29.86","356","3.8","15","0.93","0.03"
"16:49:57","59.7","58.2","94.7","29.85","337","2.7","8.4","0.93","0.02"
"16:54:59","59.7","58.3","95","29.85","337","2.4","7.2","0.93","0.02"
"16:59:56","59.8","58.4","95","29.86","342","1.6","8.4","0.93","0.02"
"17:04:57","59.8","58.2","94.3","29.86","354","2.6","12","0.94","0.02"
"17:09:56","59.9","58.2","94","29.86","351","2.9","13.2","0.95","0.02"
"17:14:59","59.9","58.2","94","29.86","320","1.9","10.8","0.96","0.04"
"17:19:56","60","58.3","94","29.85","341","3.4","10.8","0.96","0.04"
"17:24:58","60","58.3","94","29.85","359","2.2","7.2","0.98","0.06"
"17:29:59","60","58.3","94","29.85","357","3.7","13.2","0.98","0.06"
"17:34:57","60","58.3","94","29.84","348","3.4","14.4","0.99","0.07"
"17:39:59","60","58.3","94","29.84","335","2.3","13.2","1.00","0.07"
"17:44:57","60","58.3","94","29.84","349","2.9","12.7","1.01","0.08"
"17:49:59","59.9","58.2","94","29.84","343","2.3","6.9","1.02","0.09"
"17:54:57","59.9","58.4","94.6","29.84","345","2.1","13.2","1.02","0.09"
"17:59:59","59.9","58.5","95","29.84","345","3","16.1","1.02","0.09"
"18:04:56","59.9","58.5","95","29.84","337","4","13.2","1.04","0.10"
"18:09:58","59.9","58.5","95","29.84","353","1.6","8.4","1.06","0.12"
"18:14:57","59.9","58.5","95","29.84","342","2.4","7.2","1.08","0.12"
"18:19:58","59.8","58.4","95","29.84","332","2.4","8.4","1.09","0.12"
"18:24:56","59.8","58.4","95","29.84","351","2","7.2","1.10","0.13"
"18:29:58","59.8","58.4","95","29.84","337","2.8","7.2","1.12","0.14"
"18:34:59","59.8","58.4","95","29.84","354","1.6","6","1.14","0.15"
"18:39:59","59.7","58.3","95","29.84","22","2.2","8.4","1.16","0.17"
"18:44:59","59.7","58.3","95","29.85","333","1.7","4.8","1.17","0.17"
"18:49:57","59.7","58.3","95","29.85","339","2.6","6","1.22","0.19"
"18:54:59","59.7","58.3","95.3","29.85","357","1.8","5.8","1.24","0.22"
"18:59:56","59.6","58.4","95.6","29.85","333","1.8","4.8","1.25","0.23"
"19:04:57","59.7","58.4","95.6","29.84","327","2","7.2","1.25","0.23"
"19:09:56","59.7","58.6","96","29.84","351","2","8.4","1.26","0.21"
"19:14:59","59.8","58.6","95.8","29.85","312","2","6.9","1.28","0.20"
"19:19:57","59.8","58.4","95.2","29.85","4","3.2","17.3","1.29","0.21"
"19:24:59","59.8","58.6","95.7","29.85","13","2.1","8.4","1.29","0.20"
"19:29:56","59.8","58.5","95.4","29.85","292","2.1","8.4","1.29","0.19"
"19:34:58","59.8","58.4","95","29.85","341","2.3","7.2","1.29","0.17"
"19:39:57","59.8","58.4","95","29.85","1","1.6","5.8","1.29","0.15"
"19:44:59","59.8","58.4","95","29.85","352","2.9","10.8","1.29","0.13"
"19:49:56","59.8","58.4","95","29.85","344","2.4","10.8","1.29","0.12"
"19:54:57","59.8","58.4","95","29.85","341","2.7","12","1.30","0.08"
"19:59:58","59.9","58.5","95","29.85","24","2.5","10.8","1.30","0.06"
"20:04:59","59.9","58.5","95","29.85","4","2","7.2","1.30","0.05"
"20:09:58","59.9","58.5","95","29.85","39","2.4","18.4","1.30","0.05"
"20:14:56","59.9","58.5","95","29.85","14","2.4","15","1.31","0.04"
"20:19:56","60","58.6","95","29.85","264","1.7","4.8","1.31","0.03"
"20:24:58","60","58.6","95","29.85","347","1.5","10.8","1.31","0.02"
"20:29:59","60","58.6","95","29.85","329","1.9","6","1.31","0.02"
"20:34:56","60","58.6","95","29.85","6","2.3","9.6","1.31","0.02"
"20:39:58","60","58.6","95","29.85","28","1.8","9.2","1.31","0.02"
"20:44:59","60","58.6","95","29.85","343","2.8","12","1.31","0.02"
"20:49:56","60","58.6","95","29.85","322","2.3","7.2","1.31","0.02"
"20:54:58","60","58.6","95","29.85","356","2.6","7.2","1.31","0.02"
"20:59:59","60","58.6","95","29.86","324","2.2","6.9","1.31","0.01"
"21:04:56","60","58.6","95","29.86","174","1.7","5.8","1.31","0.01"
"21:09:58","59.9","58.5","95","29.86","344","3.5","13.2","1.32","0.02"
"21:14:57","59.9","58.5","95","29.86","345","2.4","4.8","1.32","0.02"
"21:19:57","59.9","58.5","95","29.86","348","2.2","8.4","1.32","0.01"
"21:24:59","59.9","58.5","95","29.86","350","2.5","10.8","1.32","0.01"
"21:29:56","59.9","58.5","95","29.86","330","2.8","12","1.32","0.01"
"21:34:57","59.8","58.4","95","29.85","351","2.5","10.8","1.32","0.01"
"21:39:59","59.8","58.4","95","29.85","355","1.7","6","1.33","0.02"
"21:44:57","59.8","58.4","95","29.85","337","2.6","16.1","1.33","0.02"
"21:49:57","59.9","58.5","95","29.85","12","2.3","7.2","1.33","0.02"
"21:54:59","59.9","58.5","95","29.85","334","2.6","12","1.33","0.02"
"21:59:56","59.9","58.5","95","29.85","339","2.6","15.6","1.33","0.02"
"22:04:56","59.9","58.5","95","29.84","306","2.4","16.1","1.33","0.02"
"22:09:59","59.9","58.5","95","29.84","336","2.8","8.4","1.33","0.02"
"22:14:57","59.9","58.5","95","29.85","343","2.9","13.2","1.33","0.01"
"22:19:56","59.9","58.5","95","29.85","354","2.1","12.7","1.33","0.01"
"22:24:58","59.9","58.5","95","29.85","335","1.8","6","1.33","0.01"
"22:29:58","59.9","58.5","95","29.85","327","2","6","1.33","0.01"
"22:34:56","59.9","58.5","95","29.84","344","2","8.4","1.33","0.01"
"22:39:58","59.9","58.5","95","29.84","345","2.5","15","1.33","0.01"
"22:44:59","59.9","58.5","95","29.84","341","2.3","10.8","1.34","0.01"
"22:49:56","59.9","58.7","95.8","29.84","337","2.4","8.4","1.34","0.01"
"22:54:57","59.9","58.8","96","29.84","352","2.1","5.8","1.34","0.01"
"22:59:58","59.9","58.8","96","29.84","343","1.9","7.2","1.35","0.02"
"23:04:58","59.9","58.8","96","29.84","340","2.3","6","1.35","0.02"
"23:09:57","59.9","58.8","96","29.84","351","2.1","7.2","1.35","0.02"
"23:14:59","59.9","58.8","96","29.84","352","2","4.8","1.35","0.02"
"23:19:56","59.9","58.8","96","29.84","359","1.8","6","1.36","0.03"
"23:24:57","59.9","58.8","96","29.84","20","1.9","7.2","1.36","0.03"
"23:29:58","59.9","58.8","96","29.84","31","1.7","7.2","1.37","0.04"
"23:34:59","59.9","58.8","96","29.84","354","1.2","4.6","1.37","0.04"
"23:39:57","59.9","58.8","96","29.84","316","1.9","7.2","1.37","0.04"
"23:44:58","59.9","58.8","96","29.84","343","2.5","15","1.37","0.04"
"23:49:59","59.9","58.8","96","29.84","352","1.2","7.2","1.37","0.03"
"23:54:57","60","58.9","96","29.84","319","2.2","8.4","1.37","0.03"
